Weather History for Santa Maria, CA

Change the Weather History Date:

Wednesday, May 8, 2013

  Actual Average Record
Temperature  
Mean Temperature 60 °F 57 °F  
Max Temperature 70 °F 68 °F 98 °F (1923)
Min Temperature 50 °F 47 °F 34 °F (1933)
Degree Days  
Heating Degree Days 5 8  
Month to date heating degree days 16 64  
Since 1 July heating degree days 2191 2523  
Cooling Degree Days 0 0  
Month to date cooling degree days 7 0  
Year to date cooling degree days 9 6  
Growing Degree Days 11 (Base 50)    
Moisture  
Dew Point 50 °F    
Average Humidity 70    
Maximum Humidity 93    
Minimum Humidity 47    
Precipitation  
Precipitation 0.00 in 0.01 in 1.31 in (1977)
Month to date precipitation 0.04 0.13  
Year to date precipitation 2.49 9.49  
Since 1 July precipitation 6.22 13.73  
Sea Level Pressure  
Sea Level Pressure 30.11 in    
Wind  
Wind Speed 8 mph (WNW)    
Max Wind Speed 22 mph    
Max Gust Speed 26 mph    
Visibility 9 miles    
Events      
T = Trace of Precipitation, MM = Missing Value Source: NWS Daily Summary

Daily Weather History Graph

Daily Weather History Graph

Search for Another Location

Airport:

Trip Planner

Search our weather history database for the weather conditions in past years. The results will help you decide how hot, cold, wet, or windy it might be!

Date:

Astronomy

May. 08, 2013 Rise Set
Actual Time 6:03 AM PDT 7:53 PM PDT
Civil Twilight 5:36 AM PDT 8:20 PM PDT
Nautical Twilight 5:03 AM PDT 8:54 PM PDT
Astronomical Twilight 4:27 AM PDT 9:29 PM PDT
Moon 5:12 AM PDT (5/8) 6:57 PM PDT (5/8)
Length of Visible Light 14h 44m
Length of Day
13h 49m
Waning Crescent, 1% of the Moon is Illuminated
May 8
Waning Crescent
May 9
New
May 17
First Quarter
May 24
Full
May 31
Last Quarter

Hourly Weather History & Observations

Time (PDT) Temp. Dew Point Humidity Pressure Visibility Wind Dir Wind Speed Gust Speed Precip Events Conditions
12:51 AM 53.1 °F 48.9 °F 86% 30.09 in 9.0 mi South 4.6 mph - N/A   Scattered Clouds
1:48 AM 51.8 °F 48.2 °F 88% 30.08 in 9.0 mi South 4.6 mph - N/A   Scattered Clouds
1:51 AM 52.0 °F 48.0 °F 86% 30.09 in 9.0 mi South 3.5 mph - N/A   Mostly Cloudy
2:17 AM 51.8 °F 48.2 °F 88% 30.08 in 8.0 mi South 4.6 mph - N/A   Scattered Clouds
2:51 AM 52.0 °F 48.9 °F 89% 30.09 in 8.0 mi Calm Calm - N/A   Clear
3:51 AM 52.0 °F 48.9 °F 89% 30.09 in 8.0 mi Calm Calm - N/A   Clear
4:11 AM 51.8 °F 48.2 °F 88% 30.09 in 8.0 mi Calm Calm - N/A   Scattered Clouds
4:20 AM 51.8 °F 48.2 °F 88% 30.09 in 8.0 mi Calm Calm - N/A   Mostly Cloudy
4:51 AM 52.0 °F 48.9 °F 89% 30.09 in 9.0 mi Calm Calm - N/A   Overcast
5:51 AM 54.0 °F 51.1 °F 90% 30.10 in 7.0 mi Calm Calm - N/A   Overcast
6:51 AM 55.0 °F 51.1 °F 86% 30.11 in 4.0 mi ENE 4.6 mph - N/A   Overcast
7:37 AM 55.4 °F 51.8 °F 88% 30.11 in 5.0 mi Calm Calm - N/A   Haze
7:51 AM 55.9 °F 51.1 °F 84% 30.12 in 5.0 mi Calm Calm - N/A   Haze
8:51 AM 60.1 °F 51.1 °F 72% 30.12 in 7.0 mi Calm Calm - N/A   Partly Cloudy
9:51 AM 64.0 °F 51.1 °F 63% 30.11 in 6.0 mi NW 6.9 mph - N/A   Haze
10:51 AM 66.9 °F 51.1 °F 57% 30.11 in 9.0 mi NW 11.5 mph - N/A   Clear
11:51 AM 70.0 °F 48.9 °F 47% 30.10 in 10.0 mi NW 16.1 mph - N/A   Clear
12:51 PM 66.9 °F 51.1 °F 57% 30.11 in 10.0 mi NW 19.6 mph - N/A   Scattered Clouds
1:51 PM 66.0 °F 51.1 °F 59% 30.11 in 10.0 mi NW 17.3 mph - N/A   Overcast
2:51 PM 64.9 °F 51.1 °F 61% 30.11 in 10.0 mi NW 19.6 mph - N/A   Mostly Cloudy
3:51 PM 64.0 °F 51.1 °F 63% 30.11 in 10.0 mi WNW 17.3 mph - N/A   Scattered Clouds
4:51 PM 64.0 °F 48.0 °F 56% 30.11 in 10.0 mi WNW 17.3 mph - N/A   Mostly Cloudy
5:51 PM 62.1 °F 48.9 °F 62% 30.12 in 10.0 mi WNW 17.3 mph - N/A   Scattered Clouds
6:51 PM 60.1 °F 48.9 °F 67% 30.12 in 10.0 mi WNW 11.5 mph - N/A   Mostly Cloudy
7:51 PM 57.0 °F 50.0 °F 77% 30.12 in 10.0 mi WNW 12.7 mph - N/A   Mostly Cloudy
8:51 PM 55.9 °F 51.1 °F 84% 30.13 in 10.0 mi WNW 5.8 mph - N/A   Mostly Cloudy
9:51 PM 55.9 °F 51.1 °F 84% 30.14 in 10.0 mi WNW 4.6 mph - N/A   Overcast
10:51 PM 55.9 °F 51.1 °F 84% 30.14 in 10.0 mi West 4.6 mph - N/A   Overcast
11:51 PM 55.0 °F 52.0 °F 89% 30.14 in 10.0 mi WNW 6.9 mph - N/A   Overcast